Location: Brachstadt
(48.6975°N, 10.6755°E)
Time: 11:50:52
(UTC+00:00)

Envisat - Pass Details

Date: 01 December 2022
Orbit: 763 x 765 km, 98.2° (Epoch: 06 February)

Event Time Altitude Azimuth Distance (km) Brightness Sun altitude
Rises 05:33:20 0° 359° (N) 3,246 6.0 -11.9°
Reaches altitude 10° 05:36:53 10° 333° (NNW) 2,315 5.1 -11.4°
Enters shadow 05:38:56 13° 310° (NW) 2,102 4.7 -11.1°
